Home   Weather   Charlotte   Past weeks

Flag for USA Past Weather in Charlotte, North Carolina, USA — Yesterday and Last 2 Weeks

Now
61 °F

More clouds than sun.


Feels Like: 61 °F
Forecast: 50 / 73 °F
Wind: 7 mph from Southeast

Location: Charlotte / Douglas International Airport

Current Time: Feb 21, 2017 at 11:44:56 am

Latest Report: Feb 21, 2017 at 10:52 am


Visibility: 10 mi

Pressure: 30.21 "Hg

Humidity: 50%

Dew Point: 42 °F

Location of CharlotteLocation

Past Weather in Charlotte — Graph

°F

Charlotte Temperature Yesterday

Maximum temperature yesterday: 73 °F (at 3:52 pm)
Minimum temperature yesterday: 39 °F (at 6:52 am)
Average temperature yesterday: 58 °F

High & Low Weather Summary for the Past Weeks

 TemperatureHumidityPressure
High79 °F (Feb 12, 1:52 pm)97% (Feb 8, 3:59 am)30.47 "Hg (Feb 8, 3:59 am)
Low28 °F (Feb 10, 1:52 am)11% (Feb 13, 2:52 pm)29.55 "Hg (Feb 15, 6:52 am)
Average54 °F52%29.97 "Hg
* Reported Feb 6 9:52 am — Feb 21 9:52 am, Charlotte, Weather by CustomWeather, © 2017

Note: Actual official high and low records may vary slightly from our data, if they occured in-between our weather recording intervals... More about our weather records

Advertising

Charlotte Weather History for the Previous 24 Hours

Scroll right to see more
 ConditionsComfort  
Time TempWeatherWind HumidityBarometerVisibility
9:52 am
Tue, Feb 21
58 °FMore clouds than sun.8 mph56%30.22 "Hg10 mi
8:52 am54 °FMore clouds than sun.9 mph62%30.23 "Hg10 mi
7:52 am53 °FSunny.8 mph66%30.23 "Hg10 mi
6:52 am53 °FPassing clouds.12 mph77%30.21 "Hg10 mi
5:52 am54 °FPassing clouds.9 mph74%30.19 "Hg10 mi
4:52 am54 °FPassing clouds.6 mph69%30.19 "Hg10 mi
3:52 am54 °FPassing clouds.6 mph67%30.19 "Hg10 mi
2:52 am57 °FPassing clouds.7 mph58%30.17 "Hg10 mi
1:52 am57 °FPassing clouds.5 mph55%30.19 "Hg10 mi
12:52 am55 °FPassing clouds.5 mph62%30.18 "Hg10 mi
11:52 pm
Mon, Feb 20
57 °FPassing clouds.6 mph55%30.18 "Hg10 mi
10:52 pm59 °FPassing clouds.7 mph54%30.18 "Hg10 mi
9:52 pm61 °FPassing clouds.5 mph48%30.18 "Hg10 mi
8:52 pm63 °FPassing clouds.6 mph45%30.17 "Hg10 mi
7:52 pm63 °FPassing clouds.7 mph45%30.17 "Hg10 mi
6:52 pm67 °FPassing clouds.9 mph37%30.17 "Hg10 mi
5:52 pm69 °FOvercast.7 mph33%30.16 "Hg10 mi
4:52 pm71 °FMore clouds than sun.8 mph29%30.15 "Hg10 mi
3:52 pm73 °FPartly sunny.No wind27%30.15 "Hg10 mi
2:52 pm72 °FPartly sunny.3 mph28%30.15 "Hg10 mi
1:52 pm71 °FScattered clouds.5 mph30%30.15 "Hg10 mi
12:52 pm69 °FScattered clouds.3 mph32%30.18 "Hg10 mi
11:52 am68 °FPassing clouds.7 mph33%30.22 "Hg10 mi
Weather by CustomWeather, © 2017

See weather overviewHow to use our weather pages